Location: Moscow Pond
(43.6842°N, 73.2366°W)
Time: 20:38:19
(UTC+00:00)

ACS3 Solar Sail - Pass Details

Date: 08 November 2025
Orbit: 890 x 1003 km, 97.3° (Epoch: 04 December)

Event Time Altitude Azimuth Distance (km) Brightness Sun altitude
Rises 07:15:21 0° 23° (NNE) 3,541 5.2 -47.0°
Reaches altitude 10° 07:18:12 10° 37° (NE) 2,610 4.5 -46.5°
Enters shadow 07:18:55 13° 41° (NE) 2,403 4.3 -46.4°
